Regional Weather Roundup
Issued by NWS

Home | Current Version | Previous Version | Text Only | Print | Product List | Glossary On
Versions: 1 2 3 4 5 6 7 8 9 10 11 12 13 14 15 16 17 18 19 20 21 22 23 24 25 26 27 28 29 30 31 32 33 34 35 36 37 38 39 40 41 42 43 44 45 46 47 48 49 50
069
ASUS44 KEWX 251503
RWRTX
SOUTH TEXAS REGIONAL WEATHER ROUNDUP
NATIONAL WEATHER SERVICE AUSTIN/SAN ANTONIO TX
1000 AM CDT THU MAY 25 2017

NOTE: "FAIR" INDICATED FEW OR NO CLOUDS BELOW 12,000 FEET WITH NO
SIGNIFICANT WEATHER AND/OR OBSTRUCTIONS TO VISIBILITY.

* - THESE STATIONS ARE NOT NWS OR FAA STATIONS...AND ARE NOT SUBJECT
    TO NWS AND FAA QUALITY CONTROL.

TXZ171-172-183>190-251600-
TEXAS HILL COUNTRY AND EDWARDS PLATEAU

CITY           SKY/WX    TMP DP  RH WIND       PRES   REMARKS
JUNCTION       SUNNY     77  55  46 SW16G28   29.77R
*LLANO         SUNNY     79  50  36 S9        29.79S
BURNET         SUNNY     76  47  35 S17G31    29.79S
*HORSESHOE BAY NOT AVBL
*KERRVILLE     SUNNY     74  53  48 S22G30    29.82F
*FREDERICKSBRG SUNNY     73  46  38 S17G23    29.80F
*ROCKSPRINGS   SUNNY     72  55  56 S14G22    29.84R
*BOERNE STAGE  SUNNY     72  50  46 S16G25    29.84S
*CASTROVILLE   SUNNY     74  57  55 S9        29.83S
HONDO          SUNNY     75  58  55 S9        29.82S
*UVALDE        SUNNY     73  57  58 S10G16    29.81S
DEL RIO        SUNNY     71  59  65 SE13G20   29.76R
LAUGHLIN AFB   SUNNY     73  62  67 SE14      29.77R
CARRIZO SPRGS  SUNNY     79  55  44 S12G17    29.77S
*EAGLE PASS    NOT AVBL
$$

TXZ173-191>194-202-209-217>225-228-251600-
CENTRAL AND SOUTH CENTRAL TEXAS

CITY           SKY/WX    TMP DP  RH WIND       PRES   REMARKS
GEORGETOWN     SUNNY     75  52  43 S31G41    29.75F
AUSTIN/BERGSTM SUNNY     76  60  57 S24G33    29.79R
AUSTIN/MABRY     N/A     77  57  50 S8        29.80R
*AUSTIN/EXEC   SUNNY     73  59  60 S21G28    29.80R
*LAGO VISTA    SUNNY     76  49  39 S12G22    29.80S
SAN MARCOS     SUNNY     75  61  60 S16G23    29.82S
NEW BRAUNFELS  SUNNY     77  60  55 S22G31    29.80F
RANDOLPH AFB   SUNNY     76  58  51 S16       29.82S
PT SAN ANTONIO NOT AVBL
SAN ANTONIO    SUNNY     75  56  51 S16       29.82F
STINSON FIELD  SUNNY     77  58  51 S14       29.81R
*LA GRANGE     SUNNY     79  65  63 SW12G20   29.79R
*GIDDINGS      SUNNY     76  61  60 SW21      29.81S
*GONZALES      SUNNY     78  66  66 S13       29.82R
$$

TXZ163>164-176>182-195>201-210>213-226-227-235-251600-
SOUTHEAST TEXAS

CITY           SKY/WX    TMP DP  RH WIND       PRES   REMARKS
COLLEGE STN    SUNNY     77  62  59 S16G25    29.79S
*BRYAN         SUNNY     75  61  62 S13G20    29.81R
*CALDWELL      NOT AVBL
*CROCKETT      SUNNY     72  63  73 S9        29.84S
*BRENHAM       SUNNY     79  62  56 S17       29.81S
HUNTSVILLE     SUNNY     77  60  55 S14G24    29.81S
CONROE         SUNNY     78  62  57 S12G21    29.83R
HOUSTON BUSH   SUNNY     80  60  50 S14G25    29.83R
HOUSTON HOBBY  SUNNY     79  63  57 S12G23    29.84R
*HOUSTON SW AP SUNNY     79  65  61 S7G16     29.85R
PEARLAND       SUNNY     82  62  50 S12G17    29.85R
HOUSTON HOOKS  SUNNY     79  62  56 S15G24    29.83R
ELLINGTON FLD  SUNNY     79  52  38 S13       29.86R
SUGAR LAND     SUNNY     80  64  58 S14G25    29.84R
*HOUSTON EXEC  SUNNY     79  64  61 S21       29.84S HAZE
*CLEVELAND MUN SUNNY     76  66  70 S10       29.84S
*WHARTON       SUNNY     79  61  55 S17       29.84R
*COLUMBUS      FAIR      78  62  56 S17G23    29.83S
*EAGLE LAKE    SUNNY     78  66  66 SW18G24   29.83R
$$

TXZ214>216-236>238-251600-
THE UPPER TEXAS COAST

CITY           SKY/WX    TMP DP  RH WIND       PRES   REMARKS
*ORANGE        MOSUNNY   80  65  61 S13G18    29.87R
PORT ARTHUR    SUNNY     80  63  55 S13       29.85R
GALVESTON      SUNNY     81  63  54 S20G26    29.86R
ANGLETON       SUNNY     82  63  52 S20G28    29.85R
*BAY CITY      SUNNY     81  63  55 S18       29.85R
PALACIOS       SUNNY     79  64  60 S17G25    29.85R
$$

TXZ229>234-239>247-251600-
TEXAS COASTAL BEND AND RIO GRANDE PLAINS

CITY           SKY/WX    TMP DP  RH WIND       PRES   REMARKS
VICTORIA       SUNNY     79  66  64 S14       29.83S
*BEEVILLE      SUNNY     80  67  65 S16G24    29.83R
ROCKPORT       SUNNY     81  65  58 S14G24    29.83R
*PORT ARANSAS  SUNNY     80  65  61 S16G24    29.83R
*PORT LAVACA   SUNNY     80  68  66 S16G23    29.85R
*INGLESIDE     SUNNY     82  66  58 S18G28    29.83R
CORPUS CHRISTI MOSUNNY   80  68  66 SE21G26   29.82R
CORPUS NAS     SUNNY     83  68  60 S23       29.83R
*ROBSTOWN      SUNNY     80  68  68 S14       29.83R
ALICE          SUNNY     81  63  54 S16       29.81R
KINGSVILLE NAS MOSUNNY   83  66  56 S18G25    29.82R
COTULLA        SUNNY     78  57  48 S8G20     29.79S
*FAITH RANCH   SUNNY     79  61  53 S15       29.77S
LAREDO         SUNNY     80  65  59 S16G25    29.79R
$$

TXZ248>255-251600-
DEEP SOUTH TEXAS

CITY           SKY/WX    TMP DP  RH WIND       PRES   REMARKS
BROWNSVILLE    MOSUNNY   86  69  56 SE18G29   29.82S HX  90
PORT ISABEL    SUNNY     85  68  56 S18G25    29.81S
*SOUTH PADRE   NOT AVBL
HARLINGEN      SUNNY     85  68  56 S20       29.80S
*HEBBRONVILLE  SUNNY     76  63  64 S17G24    29.82S
MCALLEN        SUNNY     85  70  60 SE17      29.81R
*WESLACO       SUNNY     82  68  60 S18       29.80S
FALFURRIAS     SUNNY     81  65  57 SE16      29.81S
EDINBURG       SUNNY     84  66  54 S15G23    29.81R
*ZAPATA        SUNNY     80  65  61 S12G18    29.78S
$$

TXZ213>215-236>238-242>244-246-247-251-254-255-251600-
CMAN STATIONS

STATION/POSITION TIME  TEMP    WIND        PRES    WAVE
                       AIR SEA DIR/SP/G            HT/PER
                 (UTC) (F)     (DEG/KT/KT) (MB)    (FT/S)
SABINE PASS      1430   78 80  190/ 13/ 18 1012.3
SEA RIM ST PARK  1400   78     210/ 13/ 16 1011.4
NORTH JETTY/GLS  1430      79  190/ 21/ 25 1010.3
EAGLE POINT      1430   78 76  210/ 16/ 21 1010.3
MORGANS POINT    1430   78 79  190/ 11/ 17 1010.2
MISSION/ARANSAS  1400   78                 1010.0
PORT O`CONNOR    1430   77     170/ 19/ 23 1010.1
PORT ARANSAS     1400   77 77  160/ 22/ 24 1009.6
MALAQUITE BEACH  1430   78 78  140/ 20/ 24 1010.3
BAFFIN BAY       1430   78 76              1009.7
PORT ISABEL      1430   79 80  150/ 13/ 17 1009.8
$$

GMZ080-GMZ150>470-251600-
OFFSHORE BUOY REPORTS

STATION/POSITION TIME  TEMP    WIND        PRES    WAVE
                       AIR SEA DIR/SP/G            HT/PER
                 (UTC) (F)     (DEG/KT/KT) (MB)    (FT/S)
20 E GALVESTON   1350   77 77  210/ 17/ 19 1010.3    3/ 4
90 E PT ARANSAS  1350   78 78  170/ 17/ 21 1010.5    4/ 5
35 NE PT MANSFLD 1450   78     160/ 17/ 21 1009.5    4/ 5
200 E PT ISABEL  1350   78 80  120/ 10/ 12 1011.8    2/ 7
$$




USA.gov is the U.S. government's official web portal to all federal, state and local government web resources and services.